Regional Weather Roundup
Issued by NWS Sioux Falls, SD

Home | Current Version | Previous Version | Text Only | Print | Product List | Glossary On
Versions: 1 2 3 4 5 6 7 8 9 10 11 12 13 14 15 16 17 18 19 20 21 22 23 24 25 26 27 28 29 30 31 32 33 34 35 36 37 38 39 40 41 42 43 44 45 46 47 48 49 50
000
ASUS43 KFSD 210410
RWRFSD

WEATHER ROUNDUP FOR SE SOUTH DAKOTA/SW MINNESOTA/NW IOWA
NATIONAL WEATHER SERVICE SIOUX FALLS SD
1100 PM CDT MON APR 20 2015

NOTE: "FAIR" INDICATES FEW OR NO CLOUDS BELOW 12,000 FEET WITH NO
SIGNIFICANT WEATHER AND OR OBSTRUCTIONS TO VISIBILITY.


SDZ038>040-050-052>070-210500-
SOUTHEAST SOUTH DAKOTA

CITY           SKY/WX    TMP DP  RH WIND       PRES   REMARKS
BROOKINGS      CLEAR     36  27  69 NW10      29.71S
CHAMBERLAIN    PTCLDY    36  10  34 NW8       29.80S
HURON          CLEAR     35  13  40 N9        29.75R WCI  28
MADISON        FAIR      32  23  69 N9        29.72S WCI  24
MITCHELL       CLEAR     40   8  26 NW10      29.76S
SIOUX FALLS    CLEAR     35  22  58 W5        29.73R
WINNER         CLOUDY    44  17  33 W10       29.82R
YANKTON        CLEAR     43   9  24 W13       29.76S
$$

MNZ071-072-080-081-089-090-097-098-210500-
SOUTHWEST MINNESOTA

CITY           SKY/WX    TMP DP  RH WIND       PRES   REMARKS
FAIRMONT       PTCLDY    39  25  56 W13       29.64F
JACKSON        PTCLDY    37  27  65 W10       29.66F
LUVERNE        CLEAR     36  27  69 NW6       29.72S
MARSHALL       CLEAR     37  25  60 NW15G21   29.66S
MONTEVIDEO     CLOUDY    39  32  75 N17G23    29.65S
PIPESTONE      CLEAR     37  25  60 NW9       29.69S
REDWOOD FALLS  CLOUDY    38  31  76 NW14      29.63F
TRACY          PTCLDY    38  28  67 NW13      29.67S
WORTHINGTON    CLEAR     37  25  60 W12       29.69F
$$

IAZ001>003-012>014-020>022-031-032-NEZ013-014-SDZ071-210500-
NORTHWEST IOWA

CITY           SKY/WX    TMP DP  RH WIND       PRES   REMARKS
CHEROKEE       CLEAR     38  20  47 W6        29.72S
DENISON        CLEAR     39  19  45 CALM      29.73S
ESTHERVILLE    CLEAR     37  27  67 W14       29.67S
LE MARS        CLEAR     37  16  41 W5        29.75S
ORANGE CITY    CLEAR     36  16  44 NW3       29.72S
SHELDON        CLEAR     34  27  75 NW7       29.71R WCI  28
SIOUX CITY     CLEAR     43  13  29 W12       29.75S
SPENCER        CLEAR     32  27  81 NW8       29.70S WCI  25
STORM LAKE     CLEAR     36  23  60 W10       29.72S
$$

ABBREVIATIONS USED IN REMARKS
   TC - TEMPERATURE IN CELSIUS
  WCI - WIND CHILL INDEX
   HX - HEAT INDEX
  VSB - VISIBILITY




USA.gov is the U.S. government's official web portal to all federal, state and local government web resources and services.